Location: Campestrin
(46.4667°N, 11.7167°E)
Time: 09:53:33
(UTC+00:00)

Cosmos 2297 Rocket - Pass Details

Date: 18 April 2021
Orbit: 838 x 844 km, 71.0° (Epoch: 06 May)

Event Time Altitude Azimuth Distance (km) Brightness Sun altitude
Exits shadow 20:02:07 22° 172° (S) 1,740 3.4 -18.4°
Maximum altitude 20:05:26 48° 109° (ESE) 1,091 2.4 -18.9°
Drops below altitude 10° 20:10:50 10° 36° (NE) 2,469 4.7 -19.6°
Sets 20:13:21 0° 31° (NNE) 3,409 5.5 -19.9°
